CZ-6A DEB, 61488

Orbit data source: Space-Track

CZ-6A DEB, 61488 is space debris in LEO originally from a launch on Tue, 06 Aug 2024 UTC launched from the Taiyaun Space Center, China (TSC). Debris objects in space refer to the collection of defunct objects orbiting the Earth. Examples of debris include non-operational satellites, rocket bodies, and fragments generated from explosions, collisions, or faulty payload assembly.

Loading next visibility...
Identifier
61488, 2024-140AAW
Orbit
LEO
Country
Flag of CNCN / PRC
Related business
Manufacturer
SAST
Mission
Spacecraft
Bus & Motor
Unknown
Mass
Unknown
Launch date (UTC)
2024-08-06 (2 years ago)
Launch vehicle
Unknown
Launch site
Taiyaun Space Center, China (TSC)
Object type
Payload
Rocket body
Debris
Shape & HBR
Unknown shape, 0.1 m
Radar Cross Section
Small (<0.1 m²)

Expand to show TLE details & history
Last TLE update: 18 hours ago

TLE from 18 hours ago
0 CZ-6A DEB
1 61488U 24140AAW 26118.35136065  .00004180  00000-0  14241-2 0  9992
2 61488  88.6370 251.7054 0082568 218.0586 141.4762 14.34429889 85172
Epoch: 2026-04-28T08:25Z
TLE epoch observation values (Epoch: 2026-04-28T08:25:57.560Z)
Latitude
-0.00006°
Longitude
-91.11235°
Altitude
826.451 km
Speed
7.416 km/s
True Right ascension
16h 46m 49s
True Declination
0° 00' 00"
Sunlit
Object was in full shadow at epoch
Visualization orbit readout
Latitude
Unknown
Longitude
Unknown
Altitude
Unknown
Speed
Unknown
Apparent Right ascension
Unknown
Apparent Declination
Unknown
Sunlit
N/A
Visualization observer readout
Local Sidereal Time
10:05:34
Azimuth
Unknown
Elevation
Unknown
Doppler factor
Unknown
Orbital elements
Apogee altitude
832.947 km
Perigee altitude
714.841 km
Semi-major axis
7,152.031 km
Eccentricity
0.00826
Inclination
88.637°
RAAN
251.7054°
Arg. of periapsis
218.0586°
True anomaly
142.06077°
Mean anomaly
141.4762°
Eccentric anomaly
141.76896°
Mean motion
3.58839 °/min
Orbital period
100.32 mins
BSTAR
0.0014241
Loading maneuver chart data...
Computing Atmospheric mass density...
Loading historical data...
Loading historical data...
Loading historical data...
Loading historical data...
Loading historical data...
Loading historical data...
Loading historical data...

Documentation

Showing up to 5 results
|